Date,TemperatureHighF,TemperatureAvgF,TemperatureLowF,DewpointHighF,DewpointAvgF,DewpointLowF,HumidityHigh,HumidityAvg,HumidityLow,PressureMaxIn,PressureMinIn,WindSpeedMaxMPH,WindSpeedAvgMPH,GustSpeedMaxMPH,PrecipitationSumIn
2013-1-1,73,59,46,64,55,44,97,89,74,30.23,30.01,4,1,10,0.00
2013-1-2,67,63,58,66,61,55,97,93,84,30.12,29.97,1,0,4,0.05
2013-1-3,58,51,46,55,49,44,97,93,85,30.30,30.09,0,0,3,0.27
2013-1-4,55,46,39,48,43,37,97,89,73,30.37,30.28,0,0,5,0.02
2013-1-5,60,49,41,46,41,36,95,76,44,30.40,30.27,0,0,2,0.01
2013-1-6,53,49,47,50,47,44,97,93,87,30.27,30.15,0,0,2,0.15
2013-1-7,58,51,45,48,45,40,94,81,66,30.33,30.24,1,0,5,0.08
2013-1-8,72,59,49,64,54,45,94,84,69,30.32,30.20,1,0,4,0.01
2013-1-9,74,66,61,69,64,60,97,92,83,30.34,30.23,1,0,6,0.01
2013-1-10,80,70,64,70,66,62,98,87,67,30.32,30.23,2,0,9,0.00
2013-1-11,78,69,60,66,64,59,95,83,62,30.24,30.14,5,1,15,0.00
2013-1-12,78,65,55,69,62,54,98,90,72,30.19,30.09,4,0,9,0.00
2013-1-13,76,67,60,68,63,59,98,89,70,30.14,30.06,5,1,13,0.00
2013-1-14,79,68,60,67,63,59,98,86,62,30.18,30.09,5,1,16,0.00
2013-1-15,78,66,56,67,62,55,98,88,63,30.14,30.05,4,1,13,0.00
2013-1-16,77,69,65,69,66,64,97,92,77,30.09,29.97,4,1,11,0.00
2013-1-17,69,57,44,68,50,35,95,80,57,30.22,29.93,7,2,20,0.01
2013-1-18,63,50,41,42,38,33,91,66,39,30.44,30.22,2,0,7,0.01
2013-1-19,71,54,42,54,44,33,84,68,50,30.42,30.22,1,0,6,0.00
2013-1-20,72,57,48,54,50,45,93,77,51,30.25,30.11,4,0,8,0.00
2013-1-21,69,53,42,49,44,41,96,74,41,30.19,30.07,2,0,7,0.00
2013-1-22,62,50,38,44,35,31,84,61,33,30.35,30.15,1,0,6,0.00
2013-1-23,66,48,32,47,38,30,93,72,43,30.45,30.30,2,0,7,0.00
2013-1-24,74,57,44,56,49,42,96,77,49,30.33,30.23,5,0,12,0.00
2013-1-25,71,59,51,57,52,47,93,78,56,30.35,30.19,3,0,12,0.00
2013-1-26,78,63,51,64,57,50,96,83,55,30.26,30.16,4,0,9,0.00
2013-1-27,76,63,49,61,55,45,95,79,57,30.36,30.25,2,0,6,0.00
2013-1-28,76,63,53,65,58,51,95,84,68,30.36,30.25,4,1,11,0.00
2013-1-29,79,67,57,67,63,56,96,88,66,30.25,30.06,4,1,12,0.00
2013-1-30,72,68,54,69,65,49,96,91,83,30.06,29.73,6,3,19,0.64
2013-1-31,59,50,38,50,35,31,88,59,35,30.29,29.95,4,1,9,0.64
2013-2-1,64,46,34,43,36,32,94,72,40,30.37,30.28,3,0,9,0.00
2013-2-2,66,46,33,39,30,23,84,56,25,30.39,30.20,3,0,6,0.00
2013-2-3,68,52,42,46,39,31,94,66,25,30.24,30.09,4,0,10,0.00
2013-2-4,65,51,39,52,43,37,95,76,47,30.15,30.05,2,0,8,0.00
2013-2-5,65,56,49,60,54,47,97,92,82,30.10,30.01,2,0,5,0.10
2013-2-6,71,62,56,62,59,55,97,88,73,30.15,30.04,2,0,5,0.07
2013-2-7,68,63,58,66,61,56,95,92,87,30.09,29.78,6,1,19,0.34
2013-2-8,70,59,54,60,55,53,96,89,69,30.14,29.93,3,0,8,0.01
2013-2-9,70,55,44,54,46,42,96,75,37,30.28,30.14,2,0,5,0.00
2013-2-10,74,60,48,62,53,43,90,78,65,30.27,30.11,6,1,16,0.00
2013-2-11,71,67,64,67,64,61,97,91,84,30.17,30.06,4,2,15,0.06
2013-2-12,72,64,60,70,63,59,98,97,94,30.08,29.85,4,1,12,0.14
2013-2-13,75,68,51,71,62,47,95,80,57,30.03,29.80,4,1,11,0.03
2013-2-14,51,47,40,47,44,37,95,88,78,30.13,29.98,1,0,4,0.03
2013-2-15,69,49,33,49,39,32,97,75,35,30.15,30.00,2,0,5,0.00
2013-2-16,58,47,39,44,36,22,93,69,39,30.22,29.98,4,1,19,0.00
2013-2-17,56,41,29,30,24,16,85,56,21,30.39,30.22,5,0,11,0.00
2013-2-18,63,44,29,35,28,20,93,62,21,30.42,30.23,3,0,9,0.00
2013-2-19,67,53,38,66,51,33,96,91,77,30.23,30.03,4,1,12,0.34
2013-2-20,63,48,36,48,38,32,96,72,31,30.23,30.09,1,0,6,0.17
2013-2-21,73,52,36,57,45,34,93,79,47,30.17,30.00,1,0,4,0.00
2013-2-22,70,64,58,67,62,56,98,95,88,30.08,29.97,4,1,12,3.30
2013-2-23,76,68,63,71,66,62,100,95,82,29.97,29.83,3,1,9,3.22
2013-2-24,75,63,56,62,58,55,98,87,53,30.01,29.87,1,0,5,1.07
2013-2-25,62,58,54,61,57,53,98,97,96,29.93,29.74,2,0,9,4.41
2013-2-26,73,66,54,68,57,49,98,77,46,29.88,29.53,6,2,21,2.37
2013-2-27,64,55,47,51,45,42,92,71,46,30.03,29.87,3,0,8,0.01
2013-2-28,67,55,46,47,42,33,95,66,31,30.03,29.93,4,1,13,0.00
2013-3-1,52,48,41,40,36,34,83,65,55,30.08,29.99,2,0,9,0.00
2013-3-2,54,44,36,36,33,30,86,67,46,30.10,30.00,5,1,13,0.00
2013-3-3,52,43,36,33,31,28,77,63,44,30.18,30.06,3,1,12,0.00
2013-3-4,68,47,32,38,33,27,95,62,28,30.24,30.12,4,0,124,0.00
2013-3-5,71,58,44,63,53,38,96,83,70,30.14,29.93,5,1,20,0.06
2013-3-6,59,50,42,50,37,32,84,63,38,30.20,30.03,5,1,14,0.06
2013-3-7,66,49,36,43,37,33,89,66,37,30.30,30.18,3,0,8,0.00
2013-3-8,74,54,38,44,39,34,96,63,23,30.29,30.16,1,0,6,0.00
2013-3-9,72,57,43,47,42,36,93,60,27,30.29,30.18,2,0,8,0.00
2013-3-10,75,62,52,57,52,46,89,70,47,30.20,30.09,5,1,15,0.00
2013-3-11,73,62,54,62,57,51,94,84,66,30.11,29.84,7,2,17,0.11
2013-3-12,65,57,48,63,50,44,96,81,50,30.10,29.83,3,0,10,0.62
2013-3-13,69,56,42,45,39,33,88,57,30,30.26,30.10,5,1,16,0.01
2013-3-14,64,51,39,37,32,28,81,51,26,30.39,30.24,2,0,8,0.00
2013-3-15,76,55,40,44,39,34,89,60,28,30.31,30.14,4,0,10,0.00
2013-3-16,80,62,47,60,51,43,95,70,40,30.19,30.01,4,1,12,0.00
2013-3-17,71,61,55,63,58,53,99,91,76,30.09,30.01,3,0,10,0.32
2013-3-18,79,67,60,68,64,59,97,90,68,30.03,29.87,4,1,13,0.31
2013-3-19,78,65,59,65,60,55,97,86,61,30.05,29.87,4,0,8,0.39
2013-3-20,70,60,50,56,45,40,93,61,35,30.08,29.91,1,0,6,0.01
2013-3-21,67,54,43,42,35,28,77,54,24,30.03,29.92,6,0,15,0.00
2013-3-22,70,57,46,44,37,31,85,51,27,30.06,29.93,4,0,8,0.00
2013-3-23,63,60,58,60,52,39,97,79,47,29.98,29.76,2,0,7,1.80
2013-3-24,86,73,61,70,64,50,98,76,37,29.76,29.53,4,2,12,1.32
2013-3-25,65,54,44,51,33,24,64,46,24,30.12,29.73,5,2,14,0.13
2013-3-26,57,47,38,34,28,24,71,49,31,30.31,30.12,4,1,18,0.00
2013-3-27,63,47,33,36,30,25,84,56,23,30.38,30.26,4,0,10,0.00
2013-3-28,71,52,37,41,35,28,88,58,23,30.36,30.24,2,0,8,0.00
2013-3-29,76,58,42,47,40,32,90,59,20,30.35,30.20,3,0,12,0.00
2013-3-30,76,60,45,55,48,41,90,69,45,30.27,30.13,4,1,11,0.00
2013-3-31,77,65,57,64,57,-100,91,79,59,30.14,29.96,5,1,15,0.03
2013-4-1,84,70,60,65,58,54,91,71,41,30.01,29.92,4,0,13,0.01
2013-4-2,84,67,51,55,49,43,90,60,24,30.14,30.01,2,0,6,0.01
2013-4-3,71,62,55,65,57,50,91,85,74,30.08,29.93,2,0,9,0.52
2013-4-4,79,68,62,68,62,59,91,84,61,30.01,29.86,2,0,8,0.27
2013-4-5,62,57,51,59,52,46,90,84,70,30.09,29.85,2,0,7,0.08
2013-4-6,77,60,44,53,47,41,91,68,33,30.17,30.08,2,0,6,0.01
2013-4-7,79,65,53,61,54,49,90,69,42,30.19,30.09,4,1,12,0.01
2013-4-8,82,68,57,62,57,53,89,70,44,30.17,30.07,4,1,13,0.00
2013-4-9,85,70,56,64,58,53,91,71,44,30.17,30.08,3,1,11,0.00
2013-4-10,85,72,61,64,60,56,89,69,43,30.11,29.96,3,1,7,0.00
2013-4-11,78,71,61,71,66,57,89,84,78,29.96,29.75,5,1,16,0.01
2013-4-12,79,73,62,70,65,51,90,77,52,29.93,29.73,5,1,15,0.13
2013-4-13,83,67,52,55,50,45,85,58,28,30.05,29.93,1,0,4,0.01
2013-4-14,65,61,59,58,55,51,91,81,65,30.04,29.87,4,0,17,1.46
2013-4-15,83,69,58,71,63,55,92,82,63,30.09,29.89,1,0,5,0.51
2013-4-16,88,75,64,71,66,61,90,75,50,30.18,30.09,2,0,7,0.01
2013-4-17,83,73,65,68,64,61,89,75,55,30.20,30.08,2,0,5,0.00
2013-4-18,83,73,63,67,62,59,90,71,45,30.09,29.96,4,1,11,0.00
2013-4-19,77,68,54,72,64,50,91,88,79,30.10,29.89,3,1,13,0.51
2013-4-20,71,57,48,50,46,42,94,71,38,30.20,30.09,1,0,10,0.51
2013-4-21,78,62,46,61,52,43,90,72,50,30.23,30.11,3,0,7,0.03
2013-4-22,68,63,59,60,58,56,90,83,72,30.19,30.10,1,0,9,0.09
2013-4-23,80,67,54,61,56,51,94,72,47,30.18,30.07,2,0,7,0.00
2013-4-24,81,68,56,63,58,52,89,72,51,30.19,30.09,3,1,11,0.00
2013-4-25,79,68,61,71,63,58,91,85,70,30.25,30.12,1,-25,5,0.01
2013-4-26,85,69,53,59,51,43,87,57,29,30.30,30.20,2,0,6,0.00
2013-4-27,83,71,60,64,60,54,84,69,49,30.26,30.12,4,0,9,0.00
2013-4-28,82,72,61,65,59,-100,85,68,48,30.14,29.98,5,1,14,0.00
2013-4-29,77,66,63,68,62,59,90,86,69,30.01,29.95,2,0,13,0.85
2013-4-30,85,71,59,69,62,56,91,77,48,30.02,29.94,1,0,7,0.27
2013-5-1,71,68,65,66,63,60,89,85,79,30.06,29.96,2,0,11,0.06
2013-5-2,78,68,64,68,63,59,90,83,69,30.05,29.93,3,0,13,0.12
2013-5-3,72,67,63,65,62,60,90,85,72,29.93,29.81,3,1,12,0.18
2013-5-4,69,64,55,65,59,51,89,85,79,29.86,29.78,3,0,10,0.19
2013-5-5,75,61,46,59,49,43,90,69,39,29.92,29.82,4,1,10,0.02
2013-5-6,71,60,46,52,46,42,86,63,42,30.02,29.90,4,1,12,0.00
2013-5-7,78,66,54,57,53,50,88,66,41,30.03,29.93,5,1,13,0.00
2013-5-8,82,68,55,64,58,52,90,73,41,30.12,30.01,3,0,11,0.00
2013-5-9,84,72,60,67,61,56,90,71,46,30.16,30.08,2,0,7,0.00
2013-5-10,84,69,59,65,57,-100,89,71,40,30.14,29.98,4,0,10,0.00
2013-5-11,83,71,63,70,65,59,90,81,61,30.06,29.97,4,0,10,0.04
2013-5-12,83,72,65,66,60,-100,90,70,41,30.07,29.95,3,0,14,0.03
2013-5-13,78,67,57,56,45,36,74,49,23,30.22,30.06,3,0,10,0.00
2013-5-14,82,65,48,55,47,41,88,57,26,30.29,30.16,4,0,7,0.00
2013-5-15,88,70,55,62,55,50,88,62,34,30.24,30.06,4,0,8,0.00
2013-5-16,85,66,60,65,43,-100,87,72,45,30.14,30.03,4,0,8,0.00
2013-5-17,88,73,62,67,54,-100,90,68,38,30.12,30.03,3,0,9,0.00
2013-5-18,85,73,62,69,64,58,89,73,50,30.14,30.04,2,0,7,0.00
2013-5-19,89,76,64,70,65,60,90,71,47,30.10,30.00,4,0,10,0.00
2013-5-20,92,78,67,71,66,61,88,70,36,30.10,29.97,1,0,7,0.00
2013-5-21,92,79,67,71,67,63,89,69,42,30.05,29.91,4,0,10,0.00
2013-5-22,91,78,66,71,67,62,89,71,45,30.01,29.88,2,0,6,0.00
2013-5-23,93,80,70,72,66,58,88,65,34,30.01,29.93,5,0,10,0.00
2013-5-24,91,78,68,65,60,49,87,60,26,30.14,29.98,4,0,12,0.00
2013-5-25,88,73,58,60,54,47,77,54,25,30.26,30.14,2,0,8,0.00
2013-5-26,90,76,60,64,58,54,83,58,30,30.25,30.14,2,0,8,0.00
2013-5-27,91,76,63,67,61,53,87,63,28,30.22,30.09,3,0,9,0.00
2013-5-28,90,77,63,66,62,58,86,63,37,30.17,30.06,3,0,8,0.00
2013-5-29,91,78,69,75,68,64,89,72,46,30.15,30.04,6,1,13,0.77
2013-5-30,90,78,70,74,69,67,90,76,48,30.16,30.03,6,0,16,0.76
2013-5-31,90,79,71,73,69,66,88,73,49,30.15,30.02,4,0,10,0.04
2013-6-1,89,78,69,74,69,65,89,75,54,30.08,29.97,3,0,10,0.04
2013-6-2,90,80,73,75,70,-100,87,75,58,30.04,29.86,4,0,12,0.00
2013-6-3,91,80,72,76,72,68,89,78,55,29.97,29.86,4,0,9,0.00
2013-6-4,90,79,71,76,72,68,90,78,57,30.01,29.93,4,0,10,0.02
2013-6-5,84,76,72,75,71,68,90,85,70,30.02,29.90,2,0,12,1.01
2013-6-6,72,71,70,69,68,67,91,90,88,29.94,29.60,2,0,11,1.30
2013-6-7,90,77,69,77,70,66,91,78,54,29.91,29.72,7,1,15,0.62
2013-6-8,90,79,71,74,71,68,91,77,55,30.08,29.91,3,0,11,0.35
2013-6-9,85,78,72,75,72,67,91,82,67,30.10,30.02,4,0,10,0.05
2013-6-10,90,79,73,75,72,68,90,81,58,30.10,30.01,3,0,9,0.06
2013-6-11,92,80,72,76,72,69,91,78,53,30.11,30.01,2,0,9,0.06
2013-6-12,95,83,73,77,73,69,90,73,46,30.09,29.99,2,0,7,0.00
2013-6-13,94,84,77,79,76,73,89,76,53,30.03,29.85,2,0,9,0.00
2013-6-14,92,84,77,78,74,70,86,74,54,29.92,29.81,3,0,8,0.00
2013-6-15,92,82,74,73,70,66,88,68,46,30.07,29.92,3,0,9,0.00
2013-6-16,92,81,72,76,71,65,84,71,55,30.12,30.02,3,0,10,0.00
2013-6-17,93,82,74,75,72,69,90,72,49,30.07,29.97,4,1,11,0.00
2013-6-18,93,81,72,77,70,65,88,71,46,30.04,29.91,6,1,18,0.14
2013-6-19,93,82,74,77,72,69,89,75,49,30.05,29.93,4,0,9,0.28
2013-6-20,90,78,71,76,71,68,91,81,57,30.10,30.01,1,0,7,0.29
2013-6-22,89,84,77,74,72,70,86,69,57,30.15,30.05,3,1,9,1.26
2013-6-23,88,78,72,76,72,68,89,83,63,30.16,30.08,3,0,7,0.07
2013-6-24,85,76,73,76,72,70,90,88,74,30.19,30.11,1,0,7,0.13
2013-6-25,89,76,71,78,71,68,90,86,67,30.16,30.06,4,0,11,0.34
2013-6-26,93,79,70,78,72,67,91,81,53,30.11,29.99,2,0,9,0.08
2013-6-27,92,80,73,77,73,70,91,80,53,30.04,29.90,2,0,8,0.01
2013-6-28,86,78,73,78,73,69,90,86,78,29.94,29.80,4,0,10,0.44
2013-6-29,86,76,71,74,70,68,91,85,63,29.83,29.73,2,0,8,1.02
2013-6-30,86,77,71,77,72,68,91,85,69,29.82,29.72,5,0,14,0.73
2013-7-1,87,75,70,76,70,67,91,85,62,29.94,29.79,1,0,9,0.32
2013-7-2,82,76,73,76,72,69,91,87,74,30.09,29.94,4,0,11,1.55
2013-7-3,82,74,71,76,71,68,91,89,80,30.11,30.03,5,0,18,1.50
2013-7-4,77,73,72,73,70,68,91,90,84,30.13,30.04,4,0,13,1.42
2013-7-5,87,75,72,77,71,69,91,87,67,30.16,30.08,4,0,15,0.82
2013-7-6,85,77,72,76,72,69,91,86,72,30.13,30.06,3,0,11,0.17
2013-7-7,87,77,72,78,73,69,91,86,72,30.14,30.08,1,0,7,0.24
2013-7-8,90,76,74,79,72,71,91,88,65,30.19,30.11,2,0,6,0.16
2013-7-9,91,79,71,77,72,68,91,79,54,30.19,30.07,2,0,9,0.01
2013-7-10,90,75,73,78,68,-100,90,84,62,30.11,30.00,1,0,5,0.39
2013-7-11,89,76,72,77,72,69,91,87,66,30.02,29.91,2,0,6,0.24
2013-7-12,84,75,69,75,71,66,91,87,71,29.96,29.88,1,0,6,0.27
2013-7-13,82,75,69,75,71,66,92,87,77,30.01,29.87,1,0,5,0.20
2013-7-14,88,78,73,78,73,70,91,84,68,30.10,29.97,2,0,7,0.07
2013-7-15,88,76,72,77,71,69,91,87,66,30.18,30.08,1,0,9,0.05
2013-7-16,88,79,74,77,73,71,90,82,65,30.21,30.14,2,0,9,0.02
2013-7-17,89,78,72,76,72,69,91,81,59,30.24,30.09,1,0,5,0.00
2013-7-18,91,81,74,75,72,70,87,76,53,30.16,30.04,0,0,6,0.00
2013-7-19,83,77,74,75,72,71,91,86,74,30.11,30.03,1,0,7,0.28
2013-7-20,85,75,73,75,70,-100,91,88,72,30.10,30.00,3,0,13,2.06
2013-7-21,90,77,72,76,72,69,92,86,58,30.09,30.02,3,0,13,0.90
2013-7-22,83,74,71,77,70,68,91,89,77,30.12,30.03,2,0,8,0.69
2013-7-23,86,78,72,79,73,69,91,85,76,30.05,29.91,1,0,9,0.20
2013-7-24,88,77,70,80,72,67,91,86,67,29.93,29.88,3,0,10,0.74
2013-7-25,88,77,72,76,72,69,91,86,66,29.97,29.87,1,0,7,0.10
2013-7-26,92,81,74,78,73,69,91,78,55,30.03,29.95,2,0,7,0.06
2013-7-27,90,80,73,78,73,70,91,79,55,30.00,29.91,3,0,7,0.00
2013-7-28,89,79,74,76,72,70,90,80,57,30.05,29.94,2,0,11,0.03
2013-7-29,91,80,73,78,73,70,91,81,60,30.14,30.02,2,0,9,0.02
2013-7-30,91,81,76,78,74,72,90,81,61,30.19,30.07,2,0,6,0.51
2013-7-31,93,79,73,77,72,70,91,82,52,30.14,30.02,3,0,8,0.92
2013-8-1,87,79,73,77,73,70,91,85,70,30.04,29.94,3,0,6,0.45
2013-8-2,93,81,74,78,74,71,91,80,56,30.05,29.94,3,0,9,0.02
2013-8-3,92,81,74,80,75,71,91,83,62,30.07,30.00,3,0,7,1.13
2013-8-4,93,83,76,80,76,73,92,80,59,30.07,29.95,3,0,8,0.05
2013-8-5,92,82,74,80,75,71,92,81,60,30.02,29.92,1,0,5,0.04
2013-8-6,92,82,76,79,75,72,91,80,60,30.00,29.91,4,0,9,0.01
2013-8-7,92,82,75,79,75,71,90,80,62,30.01,29.93,2,0,8,0.55
2013-8-8,90,79,75,79,74,72,91,86,63,30.03,29.96,1,0,6,0.86
2013-8-9,93,81,74,81,75,71,91,82,55,30.08,29.98,1,0,7,0.01
2013-8-10,92,84,75,76,74,72,90,73,56,30.14,30.06,3,1,10,0.00
2013-8-11,93,81,75,79,75,72,90,81,56,30.17,30.08,2,0,10,0.38
2013-8-12,93,80,74,78,74,71,92,85,54,30.14,30.02,1,0,6,0.38
2013-8-13,90,80,74,79,72,-100,90,79,60,30.07,29.93,2,0,14,0.00
2013-8-14,90,78,74,78,72,-100,91,84,66,29.99,29.89,1,0,7,1.49
2013-8-15,88,73,72,78,59,-100,91,80,67,30.01,29.93,2,0,10,0.47
2013-8-16,84,75,73,76,69,-100,91,86,74,30.04,29.96,1,0,10,0.43
2013-8-17,85,74,71,77,71,68,92,89,72,30.10,29.99,1,0,7,1.25
2013-8-18,84,75,71,78,70,-100,92,87,76,30.12,30.03,2,0,11,0.53
2013-8-19,87,74,73,78,62,-100,92,87,71,30.09,29.99,3,0,9,2.35
2013-8-20,89,77,73,79,72,-100,92,86,66,30.11,30.01,1,0,7,2.01
2013-8-21,91,77,72,79,72,69,92,85,60,30.16,30.09,1,0,5,0.11
2013-8-22,81,74,72,77,71,69,92,91,81,30.16,30.03,4,0,15,1.97
2013-8-23,86,76,71,78,73,69,92,88,73,30.07,30.00,1,0,8,0.06
2013-8-24,83,76,72,77,72,69,91,88,77,30.14,30.02,0,0,2,0.02
2013-8-25,84,76,73,76,70,-100,91,84,74,30.24,30.14,1,0,6,0.01
2013-8-26,86,77,69,74,70,65,88,79,64,30.22,30.09,2,0,8,0.00
2013-8-27,89,77,71,76,71,68,91,82,59,30.14,30.02,1,0,5,0.00
2013-8-28,91,86,77,77,74,71,84,67,54,30.06,29.99,1,0,7,0.00
2013-8-29,90,81,73,75,72,70,91,76,55,30.05,29.94,1,0,7,0.00
2013-8-30,92,80,71,79,73,68,90,80,63,30.00,29.86,1,0,7,1.81
2013-8-31,88,77,71,78,73,68,91,86,70,29.97,29.88,1,0,6,1.86
2013-9-1,92,79,74,77,72,-100,91,82,54,29.97,29.88,3,0,9,0.17
2013-9-2,89,78,74,78,74,71,91,87,64,30.00,29.91,2,0,12,0.62
2013-9-3,92,78,72,79,73,69,92,86,61,30.01,29.92,2,0,7,1.20
2013-9-4,92,79,73,79,74,69,92,84,62,30.09,29.98,3,0,12,1.01
2013-9-5,95,81,73,79,74,70,92,80,50,30.12,30.02,2,0,7,0.01
2013-9-6,91,81,73,78,74,69,91,81,59,30.08,29.98,4,0,10,0.07
2013-9-7,88,77,70,75,69,-100,91,80,58,30.08,29.96,1,0,6,0.07
2013-9-8,89,84,75,74,72,68,88,70,50,30.02,29.93,1,0,5,0.00
2013-9-9,90,79,70,76,72,67,91,81,59,30.07,29.97,0,0,5,0.00
2013-9-10,89,79,70,75,71,66,90,78,56,30.16,30.07,1,0,7,0.00
2013-9-11,90,77,70,77,71,66,90,81,57,30.15,30.04,3,0,9,0.15
2013-9-12,90,79,71,76,72,68,91,80,57,30.08,29.91,1,0,5,0.15
2013-9-13,90,80,72,76,72,69,90,77,54,29.95,29.80,0,0,0,0.00
2013-9-14,90,79,72,77,72,69,90,80,61,29.99,29.84,0,0,0,0.00
2013-9-15,94,77,71,78,68,-100,90,77,57,30.10,29.98,2,0,6,0.00
2013-9-16,93,81,72,78,72,68,90,77,51,30.11,29.98,1,0,5,0.00
2013-9-17,90,80,73,77,72,70,90,78,57,30.10,29.99,4,0,11,0.00
2013-9-18,76,73,70,70,68,66,87,85,81,30.10,30.07,1,0,5,0.03
2013-9-19,88,76,68,73,68,64,88,78,60,30.12,30.02,2,0,7,0.03
2013-9-20,90,78,69,72,68,66,90,75,47,30.06,29.91,2,0,6,0.00
2013-9-21,85,75,70,75,70,67,91,86,67,29.94,29.77,3,0,9,0.57
2013-9-22,81,74,73,74,69,-100,91,88,79,29.85,29.74,2,0,8,0.59
2013-9-23,85,76,72,78,72,69,92,89,78,29.95,29.82,2,0,7,0.30
2013-9-24,82,76,74,77,73,72,93,91,84,29.94,29.85,1,0,5,0.02
2013-9-25,87,77,70,78,72,67,93,86,73,29.86,29.73,3,0,8,0.20
2013-9-26,79,74,69,74,70,66,92,87,75,29.96,29.78,1,0,10,0.02
2013-9-27,81,71,64,66,63,60,91,77,53,30.05,29.95,0,0,6,0.00
2013-9-28,81,71,63,68,63,58,87,77,62,30.11,30.03,1,0,5,0.00
2013-9-29,83,71,62,71,63,-100,89,78,54,30.07,29.95,1,0,6,0.00
2013-9-30,75,70,66,70,66,63,89,87,82,30.04,29.96,0,0,5,0.01
2013-10-1,75,73,68,69,68,64,88,84,81,30.09,30.04,0,0,1,0.01
2013-10-2,84,74,68,70,67,64,87,78,59,30.11,30.03,1,0,5,0.01
2013-10-3,86,74,66,73,68,62,90,81,61,30.12,30.02,2,0,7,0.00
2013-10-4,90,78,70,76,71,67,91,80,58,30.13,30.02,1,0,6,0.00
2013-10-5,88,77,70,74,70,67,91,81,61,30.09,29.98,2,0,7,0.00
2013-10-6,85,77,72,74,71,68,90,82,65,30.02,29.85,2,0,9,0.00
2013-10-7,85,77,73,76,72,69,91,86,74,29.89,29.76,2,0,6,0.50
2013-10-8,83,73,63,73,67,58,87,81,71,30.03,29.86,1,0,6,0.01
2013-10-9,75,67,63,66,62,58,89,82,73,30.14,30.03,0,0,5,0.00
2013-10-10,83,69,60,67,61,57,91,78,53,30.12,30.01,0,0,4,0.00
2013-10-11,82,70,60,68,62,57,91,78,54,30.08,29.97,1,0,5,0.00
2013-10-12,83,70,61,68,62,58,91,78,51,30.08,30.00,1,0,7,0.00
2013-10-13,84,70,61,67,60,-100,89,76,53,30.14,30.04,1,0,4,0.00
2013-10-14,78,70,64,67,63,60,89,80,66,30.13,30.03,1,0,5,0.00
2013-10-15,80,70,63,68,64,60,90,80,66,30.09,29.97,0,0,8,0.00
2013-10-16,83,72,65,69,65,60,88,77,58,30.03,29.94,0,0,2,0.00
2013-10-17,87,73,64,72,66,61,91,80,53,30.01,29.90,2,0,6,0.00
2013-10-18,86,74,67,72,68,64,90,82,57,30.00,29.91,2,0,6,0.00
2013-10-19,77,71,66,72,68,63,90,89,82,29.97,29.91,0,0,4,0.11
2013-10-20,76,68,62,66,60,-100,91,81,65,30.03,29.95,1,0,4,0.02
2013-10-21,78,70,65,71,65,61,88,85,77,30.06,29.96,0,0,5,0.00
2013-10-22,71,69,67,68,66,64,91,90,88,30.01,29.85,0,0,2,0.20
2013-10-23,75,64,56,64,55,46,91,75,41,30.09,29.88,2,0,9,0.04
2013-10-24,75,58,47,53,47,41,84,69,30,30.23,30.09,2,0,5,0.01
2013-10-25,71,61,49,53,47,39,89,63,40,30.33,30.20,2,0,8,0.00
2013-10-26,71,55,42,49,43,37,85,67,37,30.31,30.17,2,0,5,0.00
2013-10-27,77,58,44,57,47,-100,90,72,40,30.20,30.10,1,0,4,0.00
2013-10-28,80,64,52,59,53,-100,90,74,42,30.25,30.13,1,0,5,0.00
2013-10-29,69,58,53,62,54,50,90,87,78,30.31,30.23,0,0,2,0.00
2013-10-30,82,67,55,65,57,52,90,74,42,30.29,30.15,3,0,7,0.00
2013-10-31,81,69,62,67,62,57,90,80,56,30.18,29.98,4,1,11,0.00
2013-11-1,82,73,66,73,69,63,91,86,74,29.98,29.78,4,1,13,0.61
2013-11-2,76,65,58,68,57,52,90,77,44,30.03,29.84,2,0,9,0.01
2013-11-3,70,58,50,52,44,-100,80,65,38,30.23,30.03,1,0,5,0.01
2013-11-4,75,61,48,59,51,42,84,71,56,30.30,30.23,2,0,9,0.00
2013-11-5,74,64,55,61,54,47,78,70,62,30.32,30.20,2,0,11,0.00
2013-11-6,80,68,64,67,62,56,87,80,64,30.24,30.10,1,0,7,0.00
2013-11-7,79,67,57,68,61,47,90,81,66,30.14,30.02,2,0,11,0.00
2013-11-8,68,56,46,47,43,37,79,63,43,30.25,30.14,1,0,7,0.00
2013-11-9,77,59,46,59,48,-100,83,71,51,30.27,30.18,2,0,8,0.00
2013-11-10,76,63,54,62,56,51,90,79,58,30.26,30.16,0,0,5,0.00
2013-11-11,78,62,49,56,52,46,89,73,40,30.23,30.13,1,0,5,0.00
2013-11-12,73,60,51,60,51,39,90,74,48,30.28,30.09,2,0,9,0.00
2013-11-13,56,46,37,39,28,22,74,52,30,30.47,30.28,2,0,8,0.00
2013-11-14,68,50,36,51,38,25,80,63,53,30.44,30.24,1,0,6,0.00
2013-11-15,62,58,55,58,54,50,90,87,79,30.24,30.08,2,0,7,0.04
2013-11-16,75,64,56,66,58,-100,91,84,71,30.18,30.07,1,0,6,0.02
2013-11-17,78,71,66,69,66,63,91,86,74,30.12,30.01,4,0,12,0.03
2013-11-18,75,71,65,72,68,61,91,90,87,30.03,29.92,2,0,5,0.04
2013-11-19,70,59,48,59,47,42,86,66,42,30.09,29.98,1,0,6,0.01
2013-11-20,70,60,54,59,51,44,80,73,66,30.22,30.06,1,0,8,0.00
2013-11-21,77,65,57,65,58,52,85,79,63,30.27,30.19,1,0,5,0.00
2013-11-22,80,68,63,69,63,59,89,83,65,30.29,30.14,1,0,5,0.00
2013-11-23,75,66,59,67,59,-100,91,83,74,30.15,30.06,2,0,9,0.00
2013-11-24,61,54,46,54,37,32,82,53,36,30.36,30.14,2,0,7,0.00
2013-11-25,59,51,43,52,40,29,81,66,55,30.36,30.09,1,0,9,0.00
2013-11-26,72,65,57,69,62,53,91,89,82,30.08,29.65,8,1,20,2.63
2013-11-27,65,46,37,62,41,31,89,81,63,30.28,29.68,6,1,14,0.18
2013-11-28,53,40,31,36,31,26,85,70,42,30.45,30.27,3,0,7,0.00
2013-11-29,65,48,36,47,38,31,85,70,48,30.48,30.36,0,0,5,0.00
2013-11-30,69,53,43,56,44,-100,84,73,60,30.41,30.27,1,0,7,0.00
2013-12-1,67,55,47,56,49,41,89,79,66,30.27,30.02,2,0,7,0.00
2013-12-2,70,58,51,56,51,48,90,80,52,30.02,29.82,1,0,5,0.00
2013-12-3,75,61,50,63,56,47,90,84,66,29.93,29.85,4,0,13,0.00
2013-12-4,78,68,63,68,63,60,91,85,67,30.06,29.92,3,0,9,0.00
2013-12-5,80,70,63,69,64,60,91,83,62,30.13,30.03,4,1,16,0.00
2013-12-6,79,69,61,69,64,58,91,85,70,30.14,30.06,5,1,19,0.00
2013-12-7,81,70,65,72,65,-100,92,88,72,30.20,30.12,2,0,7,0.28
2013-12-8,78,69,64,70,64,61,92,87,69,30.21,30.09,3,0,11,0.13
2013-12-9,79,71,65,70,66,62,91,86,71,30.14,30.06,4,1,12,0.15
2013-12-10,75,64,48,71,59,42,91,84,72,30.28,30.02,3,0,11,0.40
2013-12-11,66,52,41,55,45,35,88,78,65,30.35,30.24,0,0,4,0.01
2013-12-12,63,50,39,47,39,32,86,67,31,30.41,30.27,1,0,7,0.00
2013-12-13,67,49,34,51,40,28,84,73,53,30.35,30.12,1,0,5,0.00
2013-12-14,71,62,54,66,57,-100,91,87,82,30.12,29.87,6,1,15,1.60
2013-12-15,66,53,42,63,49,37,91,86,78,30.22,29.87,3,0,13,0.28
2013-12-16,62,45,35,43,37,32,88,77,46,30.28,30.21,1,0,4,0.00
2013-12-17,68,48,35,45,38,32,90,72,30,30.30,30.19,1,0,6,0.00
2013-12-18,65,50,41,41,38,35,88,69,35,30.35,30.22,1,0,5,0.00
2013-12-19,70,49,35,48,39,32,89,71,30,30.31,30.19,1,0,6,0.00
2013-12-20,76,58,41,62,52,38,90,81,59,30.20,30.11,4,0,11,0.00
2013-12-21,77,68,58,68,61,-100,90,83,74,30.11,30.00,5,1,16,0.00
2013-12-22,74,71,67,70,67,64,90,87,83,30.09,30.00,6,2,15,0.00
2013-12-23,72,63,51,69,60,48,91,90,86,30.22,30.03,4,0,12,0.90
2013-12-24,58,47,38,48,38,34,90,75,46,30.38,30.22,1,0,10,0.01
2013-12-25,61,46,32,48,38,27,85,75,60,30.36,30.23,1,0,4,0.00
2013-12-26,53,49,46,47,45,43,89,85,79,30.30,30.22,0,0,4,0.06
2013-12-27,61,54,50,52,48,44,86,79,71,30.35,30.25,0,0,4,0.01
2013-12-28,67,58,52,63,50,-100,89,77,69,30.30,29.92,3,0,9,0.01
2013-12-29,70,64,53,66,59,48,91,83,67,30.08,29.84,8,0,15,2.02
2013-12-30,64,54,45,51,47,42,90,78,56,30.24,30.07,0,0,4,0.03
2013-12-31,54,53,50,50,48,45,87,82,77,30.36,30.22,0,0,2,0.00
2014-1-1,54,52,48,51,48,44,90,87,82,30.34,30.10,0,0,2,0.05
2014-1-2,62,55,44,59,52,36,91,89,72,30.09,29.79,3,0,10,0.42